TimeMST,TemperatureF,Dew PointF,Humidity,Sea Level PressureIn,VisibilityMPH,Wind Direction,Wind SpeedMPH,Gust SpeedMPH,PrecipitationIn,Events,Conditions,WindDirDegrees,DateUTC
12:15 AM,48.2,28.4,46,30.16,10.0,SSE,8.1,-,N/A,,Clear,160,2013-10-03 07:15:00
12:35 AM,48.2,28.4,46,30.16,10.0,South,6.9,-,N/A,,Clear,170,2013-10-03 07:35:00
12:55 AM,48.2,28.4,46,30.16,10.0,SSE,10.4,-,N/A,,Clear,160,2013-10-03 07:55:00
1:15 AM,50.0,30.2,47,30.15,10.0,SSE,8.1,-,N/A,,Clear,160,2013-10-03 08:15:00
1:35 AM,48.2,30.2,50,30.15,10.0,SSE,5.8,-,N/A,,Clear,160,2013-10-03 08:35:00
1:55 AM,46.4,30.2,53,30.15,10.0,SSE,6.9,-,N/A,,Clear,160,2013-10-03 08:55:00
2:15 AM,48.2,30.2,50,30.15,10.0,SSE,8.1,-,N/A,,Clear,160,2013-10-03 09:15:00
2:35 AM,46.4,32.0,57,30.14,10.0,SSE,8.1,-,N/A,,Clear,160,2013-10-03 09:35:00
2:55 AM,46.4,32.0,57,30.13,10.0,SSE,8.1,-,N/A,,Clear,160,2013-10-03 09:55:00
3:15 AM,48.2,32.0,54,30.13,10.0,SSE,9.2,-,N/A,,Clear,150,2013-10-03 10:15:00
3:35 AM,46.4,32.0,57,30.13,10.0,SSE,6.9,-,N/A,,Clear,160,2013-10-03 10:35:00
3:55 AM,46.4,32.0,57,30.13,10.0,SSE,5.8,-,N/A,,Clear,160,2013-10-03 10:55:00
4:15 AM,46.4,32.0,57,30.13,10.0,SSE,6.9,-,N/A,,Clear,160,2013-10-03 11:15:00
4:35 AM,46.4,32.0,57,30.13,10.0,SSE,5.8,-,N/A,,Clear,160,2013-10-03 11:35:00
4:55 AM,44.6,32.0,61,30.12,10.0,SSE,9.2,-,N/A,,Clear,160,2013-10-03 11:55:00
5:15 AM,46.4,32.0,57,30.11,10.0,SSE,8.1,-,N/A,,Clear,150,2013-10-03 12:15:00
5:35 AM,46.4,32.0,57,30.11,10.0,South,8.1,-,N/A,,Clear,180,2013-10-03 12:35:00
5:55 AM,46.4,33.8,62,30.11,10.0,SSE,6.9,-,N/A,,Clear,160,2013-10-03 12:55:00
6:15 AM,44.6,33.8,66,30.11,10.0,South,9.2,-,N/A,,Clear,170,2013-10-03 13:15:00
6:35 AM,46.4,35.6,66,30.11,10.0,SSE,9.2,-,N/A,,Clear,160,2013-10-03 13:35:00
6:55 AM,46.4,35.6,66,30.11,10.0,SSE,6.9,-,N/A,,Clear,160,2013-10-03 13:55:00
7:15 AM,51.8,39.2,62,30.10,10.0,South,16.1,-,N/A,,Clear,180,2013-10-03 14:15:00
7:35 AM,53.6,39.2,58,30.10,10.0,South,16.1,20.7,N/A,,Clear,180,2013-10-03 14:35:00
7:55 AM,55.4,39.2,54,30.09,10.0,South,16.1,21.9,N/A,,Clear,180,2013-10-03 14:55:00
8:15 AM,55.4,39.2,54,30.09,10.0,South,16.1,24.2,N/A,,Clear,180,2013-10-03 15:15:00
8:35 AM,57.2,39.2,51,30.10,10.0,South,15.0,20.7,N/A,,Clear,190,2013-10-03 15:35:00
8:55 AM,57.2,39.2,51,30.10,10.0,South,13.8,23.0,N/A,,Clear,190,2013-10-03 15:55:00
9:15 AM,57.2,37.4,48,30.10,10.0,SSW,17.3,29.9,N/A,,Clear,200,2013-10-03 16:15:00
9:35 AM,59.0,37.4,45,30.10,10.0,SSW,21.9,27.6,N/A,,Clear,210,2013-10-03 16:35:00
9:55 AM,59.0,37.4,45,30.10,10.0,SSW,18.4,26.5,N/A,,Clear,210,2013-10-03 16:55:00
10:15 AM,59.0,32.0,36,30.09,10.0,SSW,20.7,35.7,N/A,,Clear,210,2013-10-03 17:15:00
10:35 AM,60.8,33.8,36,30.09,10.0,SSW,25.3,33.4,N/A,,Clear,200,2013-10-03 17:35:00
10:55 AM,62.6,33.8,34,30.08,10.0,South,23.0,33.4,N/A,,Clear,180,2013-10-03 17:55:00
11:15 AM,62.6,35.6,37,30.08,10.0,South,24.2,35.7,N/A,,Clear,190,2013-10-03 18:15:00
11:35 AM,62.6,32.0,32,30.07,10.0,SSW,21.9,36.8,N/A,,Clear,200,2013-10-03 18:35:00
11:55 AM,62.6,32.0,32,30.06,10.0,SSW,21.9,36.8,N/A,,Clear,200,2013-10-03 18:55:00
12:15 PM,64.4,32.0,30,30.06,10.0,South,25.3,34.5,N/A,,Clear,190,2013-10-03 19:15:00
12:35 PM,64.4,26.6,24,30.05,10.0,South,27.6,36.8,N/A,,Clear,190,2013-10-03 19:35:00
12:55 PM,64.4,26.6,24,30.05,10.0,South,26.5,34.5,N/A,,Clear,190,2013-10-03 19:55:00
1:15 PM,66.2,26.6,23,30.04,10.0,SW,16.1,35.7,N/A,,Clear,220,2013-10-03 20:15:00
1:35 PM,64.4,28.4,26,30.04,10.0,SSW,20.7,35.7,N/A,,Clear,210,2013-10-03 20:35:00
1:55 PM,66.2,26.6,23,30.03,10.0,SSW,23.0,38.0,N/A,,Clear,200,2013-10-03 20:55:00
2:15 PM,66.2,28.4,24,30.02,10.0,SSW,23.0,34.5,N/A,,Clear,200,2013-10-03 21:15:00
2:35 PM,64.4,24.8,22,30.01,10.0,SSW,24.2,33.4,N/A,,Clear,200,2013-10-03 21:35:00
2:55 PM,64.4,26.6,24,30.01,10.0,SSW,23.0,38.0,N/A,,Clear,210,2013-10-03 21:55:00
3:15 PM,64.4,26.6,24,30.02,10.0,SSW,23.0,35.7,N/A,,Clear,200,2013-10-03 22:15:00
3:35 PM,64.4,28.4,26,30.02,10.0,SW,18.4,29.9,N/A,,Clear,230,2013-10-03 22:35:00
3:55 PM,64.4,26.6,24,30.02,10.0,SSW,18.4,35.7,N/A,,Clear,210,2013-10-03 22:55:00
4:15 PM,62.6,28.4,27,30.01,10.0,SSW,18.4,29.9,N/A,,Clear,210,2013-10-03 23:15:00
4:35 PM,62.6,28.4,27,30.01,10.0,SW,15.0,33.4,N/A,,Clear,220,2013-10-03 23:35:00
4:55 PM,62.6,28.4,27,30.01,10.0,SW,20.7,29.9,N/A,,Clear,220,2013-10-03 23:55:00
5:15 PM,60.8,30.2,31,30.01,10.0,SW,19.6,27.6,N/A,,Clear,220,2013-10-04 00:15:00
5:35 PM,59.0,28.4,31,30.01,10.0,SSW,20.7,27.6,N/A,,Clear,210,2013-10-04 00:35:00
5:55 PM,59.0,26.6,29,30.02,10.0,SW,18.4,26.5,N/A,,Clear,220,2013-10-04 00:55:00
6:15 PM,57.2,26.6,31,30.02,10.0,SSW,18.4,24.2,N/A,,Clear,210,2013-10-04 01:15:00
6:35 PM,57.2,28.4,33,30.03,10.0,SW,12.7,17.3,N/A,,Clear,230,2013-10-04 01:35:00
6:55 PM,55.4,28.4,36,30.04,10.0,SW,15.0,18.4,N/A,,Clear,220,2013-10-04 01:55:00
7:15 PM,55.4,28.4,36,30.04,10.0,WSW,10.4,18.4,N/A,,Clear,240,2013-10-04 02:15:00
7:35 PM,55.4,26.6,33,30.05,10.0,WSW,12.7,19.6,N/A,,Clear,240,2013-10-04 02:35:00
7:55 PM,53.6,26.6,35,30.06,10.0,WSW,11.5,-,N/A,,Clear,250,2013-10-04 02:55:00
8:15 PM,53.6,23.0,30,30.06,10.0,WSW,12.7,19.6,N/A,,Clear,240,2013-10-04 03:15:00
8:35 PM,53.6,21.2,28,30.07,10.0,WSW,10.4,20.7,N/A,,Clear,240,2013-10-04 03:35:00
8:55 PM,51.8,23.0,33,30.07,10.0,WSW,9.2,-,N/A,,Clear,240,2013-10-04 03:55:00
9:35 PM,50.0,24.8,37,30.08,10.0,WSW,9.2,-,N/A,,Clear,240,2013-10-04 04:35:00
9:55 PM,50.0,23.0,35,30.08,10.0,SW,6.9,-,N/A,,Clear,220,2013-10-04 04:55:00
10:15 PM,48.2,23.0,37,30.08,10.0,SW,8.1,-,N/A,,Clear,220,2013-10-04 05:15:00
10:35 PM,48.2,23.0,37,30.10,10.0,NW,13.8,-,N/A,,Clear,320,2013-10-04 05:35:00
10:55 PM,44.6,23.0,43,30.11,10.0,NW,6.9,-,N/A,,Clear,320,2013-10-04 05:55:00
11:15 PM,42.8,21.2,42,30.12,10.0,Calm,Calm,-,N/A,,Unknown,0,2013-10-04 06:15:00
11:35 PM,42.8,19.4,39,30.12,10.0,NW,5.8,-,N/A,,Clear,320,2013-10-04 06:35:00
11:55 PM,41.0,19.4,42,30.13,10.0,NNW,4.6,-,N/A,,Clear,340,2013-10-04 06:55:00